Weather Roundup
Issued by NWS Corpus Christi, TX

Home | Current Version | Previous Version | Text Only | Print | Product List | Glossary On
Versions: 1 2 3 4 5 6 7 8 9 10 11 12 13 14 15 16 17 18 19 20 21 22 23 24 25 26 27 28 29 30 31 32 33 34 35 36 37 38 39 40 41 42 43 44 45 46 47 48 49 50
000
ASUS44 KCRP 221910
HRRCRP

SOUTH TEXAS REGIONAL WEATHER ROUNDUP
NATIONAL WEATHER SERVICE CORPUS CHRISTI TX
200 PM CDT MON SEP 22 2014


TXZ229>244-222000-
...CORPUS CHRISTI AREA OBSERVATIONS...

CITY           SKY/WX    TMP DP  RH WIND       PRES   REMARKS
CORPUS CHRISTI CLOUDY    89  69  51 NE14      30.04F HX  93
NAS CORPUS CHR PTSUNNY   88  73  61 NE15      30.03F HX  95
ROCKPORT       SUNNY     89  71  55 E13       30.04F HX  95
KINGSVILLE NAS PTSUNNY   90  72  55 NE13      30.04F HX  97
ALICE          MOSUNNY   91  67  44 E15       30.04F HX  94
FALFURRIAS     MOSUNNY  N/A N/A N/A NE13G18   30.03F
$$

...VICTORIA AREA OBSERVATIONS...

CITY           SKY/WX    TMP DP  RH WIND       PRES   REMARKS
VICTORIA       MOSUNNY   92  70  48 NE8       30.05F HX  97
BEEVILLE       FAIR      92  64  39 E13G20    30.05F HX  93
PLEASANTON     PTSUNNY   93  63  37 NE5G18    30.09F HX  94
SAN ANTONIO    PTSUNNY   90  64  42 NE8       30.10F HX  91
$$

...LAREDO AREA OBSERVATIONS...

CITY           SKY/WX    TMP DP  RH WIND       PRES   REMARKS
LAREDO         SUNNY     90  67  46 E9        30.09F HX  93
COTULLA        MOSUNNY   90  64  42 MISG      30.08F HX  91
DEL RIO        SUNNY     88  61  40 SE8       30.12F
MCALLEN        CLOUDY    87  74  64 E13G21    30.00F HX  95
HEBBRONVILLE     N/A     88  65  46 NE13G20   30.07F
$$

...OTHER TEXAS OBSERVATIONS...

CITY           SKY/WX    TMP DP  RH WIND       PRES   REMARKS
BROWNSVILLE    PTSUNNY   86  75  69 NE20G26   29.99F HX  95
HOUSTON        MOSUNNY   91  71  51 N5        30.05F HX  97
COL. STATION   MOSUNNY   87  71  58 NE7G16    30.08F HX  93
AUSTIN         PTSUNNY   90  68  48 N12       30.09F HX  94
WACO           MOSUNNY   88  67  49 VRB7      30.13F HX  91
FORT WORTH     MOSUNNY   85  51  31 VRB7      30.16F
WICHITA FALLS  MOSUNNY   82  48  30 E9        30.21F
LUBBOCK        PTSUNNY   75  62  64 SE13      30.28F
EL PASO        LGT RAIN  71  67  87 N7        30.19F
$$

...MARINE OBSERVATIONS...

STATION/POSITION TIME  SKY/WX   TEMP    WIND        PRES    VSBY  WAVE   SWELL
                                AIR SEA DIR/SP/G                  HT/PER HT/PER
                 (UTC)          (F)     (DEG/KT/KT) (MB)    (MI)  (FT/S) (FT/S)
PORT ARANSAS     1900            83 84   20/ 10/ 11 1017.8F
BUOY 90 E PORT A 1900            83 85   40/ 14/ 16 1017.0F         4/ 7   2/ 7
BUOY 45 SE BAFFI 1900            84 85   60/ 16/ 17 1015.7F         5/ 8   2/ 8
BUOY 200 E PT IS 1900            83 85   70/ 10/ 16 1015.4F         3/ 6   2/ 6
BUOY 15 E GALVES 1900            83 84   40/  8/  8 1016.8F         2/ 6   2/ 6
$$



USA.gov is the U.S. government's official web portal to all federal, state and local government web resources and services.